Weather History for Atlanta Fulton, GA

Change the Weather History Date:

Sunday, September 8, 2013

  Actual Average Record
Temperature  
Mean Temperature 77 °F 75 °F  
Max Temperature 89 °F 85 °F 93 °F (1999)
Min Temperature 64 °F 65 °F 59 °F (2011)
Degree Days  
Heating Degree Days 0 0  
Month to date heating degree days 0 0  
Since 1 July heating degree days 0 0  
Cooling Degree Days 12 10  
Month to date cooling degree days 101 88  
Year to date cooling degree days 1422 1525  
Growing Degree Days 26 (Base 50)    
Moisture  
Dew Point 67 °F    
Average Humidity 70    
Maximum Humidity 93    
Minimum Humidity 47    
Precipitation  
Precipitation 0.00 in 0.13 in 2.51 in (1959)
Month to date precipitation 0.71 0.96  
Year to date precipitation 33.89 36.38  
Sea Level Pressure  
Sea Level Pressure 29.98 in    
Wind  
Wind Speed 2 mph (NW)    
Max Wind Speed 13 mph    
Max Gust Speed 15 mph    
Visibility 9 miles    
Events      
T = Trace of Precipitation, MM = Missing Value Source: NWS Daily Summary

Daily Weather History Graph

Daily Weather History Graph

Search for Another Location

Airport:

Trip Planner

Search our weather history database for the weather conditions in past years. The results will help you decide how hot, cold, wet, or windy it might be!

Date:

Astronomy

Sep. 08, 2013 Rise Set
Actual Time 7:16 AM EDT 7:53 PM EDT
Civil Twilight 6:51 AM EDT 8:19 PM EDT
Nautical Twilight 6:21 AM EDT 8:48 PM EDT
Astronomical Twilight 5:51 AM EDT 9:18 PM EDT
Moon 10:21 AM EDT (9/8) 9:41 PM EDT (9/8)
Length of Visible Light 13h 27m
Length of Day
12h 37m
Waxing Crescent, 11% of the Moon is Illuminated
Sep 8
Waxing Crescent
Sep 12
First Quarter
Sep 19
Full
Sep 26
Last Quarter
Oct 4
New

Hourly Weather History & Observations

Time (EDT) Temp. Heat Index Dew Point Humidity Pressure Visibility Wind Dir Wind Speed Gust Speed Precip Events Conditions
12:53 AM 69.1 °F - 66.0 °F 90% 30.02 in 8.0 mi Calm Calm - N/A   Clear
1:53 AM 66.9 °F - 64.9 °F 93% 30.01 in 7.0 mi Calm Calm - N/A   Clear
2:53 AM 66.9 °F - 64.9 °F 93% 29.99 in 7.0 mi Calm Calm - N/A   Clear
3:53 AM 66.9 °F - 64.9 °F 93% 29.99 in 10.0 mi Calm Calm - N/A   Clear
4:53 AM 66.0 °F - 64.0 °F 93% 29.98 in 10.0 mi Calm Calm - N/A   Clear
5:53 AM 64.9 °F - 63.0 °F 93% 29.98 in 8.0 mi Calm Calm - N/A   Clear
6:53 AM 64.9 °F - 63.0 °F 93% 30.00 in 6.0 mi Calm Calm - N/A   Clear
7:53 AM 64.9 °F - 63.0 °F 93% 30.01 in 7.0 mi Calm Calm - N/A   Clear
8:53 AM 70.0 °F - 66.0 °F 87% 30.02 in 7.0 mi Calm Calm - N/A   Clear
9:53 AM 73.9 °F - 66.9 °F 79% 30.02 in 10.0 mi Calm Calm - N/A   Clear
10:53 AM 80.1 °F 82.7 °F 68.0 °F 67% 30.01 in 10.0 mi Calm Calm - N/A   Clear
11:53 AM 84.9 °F 88.8 °F 69.1 °F 59% 30.01 in 10.0 mi Variable 4.6 mph - N/A   Clear
12:53 PM 86.0 °F 89.4 °F 68.0 °F 55% 30.00 in 10.0 mi NW 9.2 mph - N/A   Unknown
1:53 PM 88.0 °F 90.7 °F 66.9 °F 49% 30.00 in 10.0 mi NNW 5.8 mph - N/A   Scattered Clouds
2:53 PM 88.0 °F 90.7 °F 66.9 °F 49% 29.97 in 10.0 mi NW 8.1 mph - N/A   Partly Cloudy
3:53 PM 89.1 °F 92.1 °F 66.9 °F 48% 29.95 in 10.0 mi WNW 8.1 mph - N/A   Mostly Cloudy
4:53 PM 88.0 °F 90.3 °F 66.0 °F 48% 29.94 in 10.0 mi NW 5.8 mph - N/A   Clear
5:53 PM 84.9 °F 87.1 °F 66.0 °F 53% 29.95 in 10.0 mi WNW 5.8 mph - N/A   Clear
6:53 PM 82.9 °F 86.5 °F 69.1 °F 63% 29.94 in 10.0 mi Calm Calm - N/A   Partly Cloudy
7:53 PM 80.1 °F 82.7 °F 68.0 °F 67% 29.95 in 10.0 mi Calm Calm - N/A   Clear
8:53 PM 75.0 °F - 70.0 °F 84% 29.95 in 9.0 mi NE 3.5 mph - N/A   Clear
9:53 PM 75.0 °F - 69.1 °F 82% 29.97 in 8.0 mi Calm Calm - N/A   Clear
10:53 PM 73.0 °F - 69.1 °F 87% 29.98 in 8.0 mi Calm Calm - N/A   Clear
11:53 PM 73.0 °F - 69.1 °F 87% 29.98 in 7.0 mi Calm Calm - N/A   Clear